Location: City of Moscow
(46.7306°N, 116.9989°W)
Time: 04:42:48
(UTC+00:00)

Orbus 7S? - Pass Details

Date: 21 March 2026
Orbit: 354 x 6170 km, 56.9° (Epoch: 30 September)

Event Time Altitude Azimuth Distance (km) Brightness Sun altitude
Rises 12:12:06 0° 192° (SSW) 10,409 9.5 -17.1°
Reaches altitude 10° 12:19:45 10° 189° (S) 9,606 9.3 -15.8°
Maximum altitude 12:55:46 57° 122° (ESE) 5,377 8.5 -9.8°
Drops below altitude 10° 13:15:21 10° 52° (NE) 5,737 9.5 -6.5°
Sets 13:18:30 0° 49° (NE) 6,231 9.7 -6.0°
